BREEZE-M R/B, 44626

Orbit data source: Space-Track

BREEZE-M R/B, 44626 is space debris in HEO originally from a launch on Wed, 09 Oct 2019 UTC launched from the Tyuratam Missile And Space Complex (TTMTR). Debris objects in space refer to the collection of defunct objects orbiting the Earth. Examples of debris include non-operational satellites, rocket bodies, and fragments generated from explosions, collisions, or faulty payload assembly.

Not visible in the next 10 days
BREEZE-M R/B details
Identifier
44626, 2019-067C
Orbit
HEO
Last TLE update5 days ago
Origin
Flag of CISKhrunichev (CIS)
ManufacturerKhrunichev
MissionSpacecraft
Bus & MotorBRIZ, Unknown motor
Mass~1,600 kg wet, 1,600 kg dry
Launch date (UTC)
2019-10-09 (5 years ago)
Launch vehicleUnknown
Launch site
Tyuratam Missile And Space Complex (TTMTR)
Object type
Payload
Rocket body
Debris
Shape & HBRCyl, 4 m
Radar Cross Section14.451 m², Large (>1 m²)

Expand to show TLE details & history

TLE from 5 days ago
0 BREEZE-M R/B
1 44626U 19067C   24356.41212563 -.00000243  00000-0  00000-0 0  9999
2 44626  18.7801  78.2075 6590655 341.5744   3.1181  0.93851568 16008
Epoch: 2024-12-21T09:53Z
Definitive object data (Epoch: 2024-12-21T09:53:27.654Z)
Latitude0.00005°
Longitude-160.70375°
Altitude8,916.333 km
Speed6.563 km/s
True Right ascension05h 12m 30s
True Declination0° 00' 00"
Sunlit
Object was in daylight at TLE epoch
Visualization TLE readout
Latitude-14.4909°
Longitude67.93685°
Altitude26,559.768 km
Speed3.893 km/s
Apparent Right ascension21h 02m 11s
Apparent Declination-20° 59' 29"
Sunlit
Object is in daylight
Visualization observer readout
Local Sidereal Time14:36:36
Azimuth102.638° ESE
Elevation-18.036°
Doppler factor1
Orbital elements
Apogee altitude66,734.229 km
Perigee altitude8,646.302 km
Semi-major axis44,068.402 km
Eccentricity0.6590655
Inclination18.7801°
RAAN78.2075°
Arg. of periapsis341.5744°
True anomaly19.85444°
Mean anomaly3.1181°
Eccentric anomaly9.07255°
Mean motion0.23461 °/min
BSTARUnknown
Orbital period1534.44 mins
Loading maneuver chart data...
Loading historical data...
Loading historical data...
Loading historical data...
Loading historical data...
Loading historical data...
Loading historical data...
Loading historical data...
Other satellites on launch #67 in the year 2019 (2019-10-09 UTC)

BREEZE-M R/B Visibility forecast

Observer location: undefined°, undefined

BREEZE-M R/B is not visible in the next 10 days
Span
Click to sort rows by Start time (UTC) header in descending order
Start Az.
Max El. time (UTC)
Max El. Az.
Max El.
End time (UTC)
End Az.
|